STARLINK-2558, 48282

Orbit data source: Space-Track

STARLINK-2558, 48282 is a payload satellite owned by SpaceX/Seattle (US) in LEO that was launched on Thu, 29 Apr 2021 UTC via an FALCON 9 launch vehicle from the Air Force Eastern Test Range (AFETR). Payload-class satellites include a variety of spacecraft equipped with specific instruments for various scientific and technological missions. These include communications satellites like Starlink; space stations such as the ISS; scientific satellites like the Hubble; Earth observation satellites from companies like Planet Labs, Umbra, and HawkEye 360; GPS; miniature CubeSats for education and research; and military/defense satellites.

Loading next visibility...
Identifier
48282, 2021-036G
Orbit
LEO
Country
Flag of USUS
Related business
Manufacturer
SpaceX/Seattle
Mission
Operational Commercial Communications
Bus & Motor
STARLINK, Unknown motor
Mass
260 kg wet, ~248 kg dry
Launch date (UTC)
2021-04-29 (5 years ago)
Launch vehicle
FALCON 9
Launch site
Air Force Eastern Test Range (AFETR)
Object type
Payload
Rocket body
Debris
Shape & HBR
Box + 1 Pan, 10.1 m
Radar Cross Section
13.562 m², Large (>1 m²)

Expand to show TLE details & history
Last TLE update: 7 hours ago

TLE from 7 hours ago
0 STARLINK-2558
1 48282U 21036G   26036.33335648  .00072192  00000-0  24903-2 0  9999
2 48282  53.1549 225.6008 0001269  99.5421 109.1931 15.29350485  5791
Epoch: 2026-02-05T08:00Z
TLE epoch observation values (Epoch: 2026-02-05T08:00:01.999Z)
Latitude
-22.82858°
Longitude
168.3868°
Altitude
484.544 km
Speed
7.623 km/s
True Right ascension
04h 15m 31s
True Declination
-22° 42' 04"
Sunlit
Object was in daylight at epoch
Visualization orbit readout
Latitude
Unknown
Longitude
Unknown
Altitude
Unknown
Speed
Unknown
Apparent Right ascension
Unknown
Apparent Declination
Unknown
Sunlit
N/A
Visualization observer readout
Local Sidereal Time
16:56:36
Azimuth
Unknown
Elevation
Unknown
Doppler factor
Unknown
Orbital elements
Apogee altitude
478.88 km
Perigee altitude
477.14 km
Semi-major axis
6,856.147 km
Eccentricity
0.00013
Inclination
53.1549°
RAAN
225.6008°
Arg. of periapsis
99.5421°
True anomaly
109.20683°
Mean anomaly
109.1931°
Eccentric anomaly
109.19997°
Mean motion
3.82316 °/min
Orbital period
94.16 mins
BSTAR
0.0024903
Loading maneuver chart data...
Computing Atmospheric mass density...
Loading historical data...
Loading historical data...
Loading historical data...
Loading historical data...
Loading historical data...
Loading historical data...
Loading historical data...

Documentation

Showing up to 5 results
|